Time,TemperatureF,DewpointF,PressureIn,WindDirection,WindDirectionDegrees,WindSpeedMPH,WindSpeedGustMPH,Humidity,HourlyPrecipIn,Conditions,Clouds,dailyrainin,SoftwareType,DateUTC
2013-10-10 00:13:00,47.9,46.0,29.97,East,95,0.0,0.0,93,0.00,,,0.00,weatherlink.com 1.10,2013-10-10 07:13:00,
2013-10-10 00:28:00,47.8,46.0,29.98,NE,48,0.0,0.0,93,0.00,,,0.00,weatherlink.com 1.10,2013-10-10 07:28:00,
2013-10-10 00:43:00,47.8,46.0,29.98,NE,53,0.0,0.0,93,0.00,,,0.00,weatherlink.com 1.10,2013-10-10 07:43:00,
2013-10-10 00:58:00,48.1,46.0,29.97,ENE,65,0.0,0.0,93,0.00,,,0.00,weatherlink.com 1.10,2013-10-10 07:58:00,
2013-10-10 01:13:00,48.2,46.0,29.97,ENE,65,0.0,0.0,93,0.00,,,0.00,weatherlink.com 1.10,2013-10-10 08:13:00,
2013-10-10 01:28:00,48.1,46.0,29.97,ENE,65,0.0,0.0,93,0.00,,,0.00,weatherlink.com 1.10,2013-10-10 08:28:00,
2013-10-10 01:43:00,48.0,46.0,29.97,ENE,65,0.0,0.0,93,0.00,,,0.00,weatherlink.com 1.10,2013-10-10 08:43:00,
2013-10-10 01:58:00,48.0,46.0,29.97,ENE,65,0.0,0.0,93,0.00,,,0.00,weatherlink.com 1.10,2013-10-10 08:58:00,
2013-10-10 02:13:00,48.0,46.0,29.97,East,84,0.0,0.0,93,0.00,,,0.00,weatherlink.com 1.10,2013-10-10 09:13:00,
2013-10-10 02:28:00,48.0,46.0,29.96,ENE,65,0.0,0.0,93,0.00,,,0.00,weatherlink.com 1.10,2013-10-10 09:28:00,
2013-10-10 02:43:00,47.7,46.0,29.96,ENE,63,0.0,0.0,93,0.00,,,0.00,weatherlink.com 1.10,2013-10-10 09:43:00,
2013-10-10 02:58:00,47.5,46.0,29.96,ENE,64,0.0,0.0,93,0.00,,,0.00,weatherlink.com 1.10,2013-10-10 09:58:00,
2013-10-10 03:13:00,47.5,46.0,29.95,NE,43,0.0,0.0,93,0.00,,,0.00,weatherlink.com 1.10,2013-10-10 10:13:00,
2013-10-10 03:28:00,47.2,45.0,29.96,NE,54,0.0,0.0,93,0.00,,,0.00,weatherlink.com 1.10,2013-10-10 10:28:00,
2013-10-10 03:43:00,46.9,45.0,29.96,NE,53,0.0,0.0,93,0.00,,,0.00,weatherlink.com 1.10,2013-10-10 10:43:00,
2013-10-10 03:58:00,46.9,45.0,29.95,NE,49,0.0,0.0,93,0.00,,,0.00,weatherlink.com 1.10,2013-10-10 10:58:00,
2013-10-10 04:13:00,46.5,45.0,29.95,NE,49,0.0,0.0,93,0.00,,,0.00,weatherlink.com 1.10,2013-10-10 11:13:00,
2013-10-10 04:28:00,46.3,44.0,29.95,NE,49,0.0,0.0,93,0.00,,,0.00,weatherlink.com 1.10,2013-10-10 11:28:00,
2013-10-10 04:43:00,46.0,44.0,29.95,NE,49,0.0,0.0,93,0.00,,,0.00,weatherlink.com 1.10,2013-10-10 11:43:00,
2013-10-10 04:58:00,46.3,44.0,29.95,NE,44,0.0,0.0,93,0.00,,,0.00,weatherlink.com 1.10,2013-10-10 11:58:00,
2013-10-10 05:13:00,46.2,44.0,29.94,NE,44,0.0,0.0,93,0.00,,,0.00,weatherlink.com 1.10,2013-10-10 12:13:00,
2013-10-10 05:28:00,46.1,44.0,29.94,NE,44,0.0,0.0,93,0.00,,,0.00,weatherlink.com 1.10,2013-10-10 12:28:00,
2013-10-10 05:43:00,46.5,45.0,29.95,ENE,68,0.0,0.0,93,0.00,,,0.00,weatherlink.com 1.10,2013-10-10 12:43:00,
2013-10-10 05:58:00,46.7,45.0,29.95,NE,53,0.0,0.0,93,0.00,,,0.00,weatherlink.com 1.10,2013-10-10 12:58:00,
2013-10-10 06:13:00,-999.0,-99.9,29.96,North,-999,-999.0,-999.0,-999,0.00,,,0.00,weatherlink.com 1.10,2013-10-10 13:13:00,
2013-10-10 06:28:00,-999.0,-99.9,29.96,North,-999,-999.0,-999.0,-999,0.00,,,0.00,weatherlink.com 1.10,2013-10-10 13:28:00,
2013-10-10 06:43:00,-999.0,-99.9,29.96,North,-999,-999.0,-999.0,-999,0.00,,,0.00,weatherlink.com 1.10,2013-10-10 13:43:00,
2013-10-10 06:58:00,-999.0,-99.9,29.96,North,-999,-999.0,-999.0,-999,0.00,,,0.00,weatherlink.com 1.10,2013-10-10 13:58:00,
2013-10-10 07:13:00,-999.0,-99.9,29.96,North,-999,-999.0,-999.0,-999,0.00,,,0.00,weatherlink.com 1.10,2013-10-10 14:13:00,
2013-10-10 07:28:00,-999.0,-99.9,29.96,North,-999,-999.0,-999.0,-999,0.00,,,0.00,weatherlink.com 1.10,2013-10-10 14:28:00,
2013-10-10 07:43:00,-999.0,-99.9,29.96,North,-999,-999.0,-999.0,-999,0.00,,,0.00,weatherlink.com 1.10,2013-10-10 14:43:00,
2013-10-10 07:58:00,-999.0,-99.9,29.96,North,-999,-999.0,-999.0,-999,0.00,,,0.00,weatherlink.com 1.10,2013-10-10 14:58:00,
2013-10-10 08:13:00,48.4,47.0,29.97,NE,51,0.0,0.0,93,0.00,,,0.00,weatherlink.com 1.10,2013-10-10 15:13:00,
2013-10-10 08:28:00,48.9,47.0,29.97,ENE,63,0.0,0.0,93,0.00,,,0.00,weatherlink.com 1.10,2013-10-10 15:28:00,
2013-10-10 08:43:00,49.3,47.0,29.97,ENE,58,0.0,0.0,93,0.00,,,0.00,weatherlink.com 1.10,2013-10-10 15:43:00,
2013-10-10 08:58:00,49.9,48.0,29.98,ENE,57,0.0,0.0,93,0.00,,,0.00,weatherlink.com 1.10,2013-10-10 15:58:00,
2013-10-10 09:14:00,50.4,49.0,29.98,NE,54,0.0,0.0,93,0.00,,,0.00,weatherlink.com 1.10,2013-10-10 16:14:00,
2013-10-10 09:29:00,51.2,49.0,29.98,NE,51,0.0,0.0,92,0.00,,,0.00,weatherlink.com 1.10,2013-10-10 16:29:00,
2013-10-10 09:44:00,52.2,50.0,29.98,NE,51,0.0,0.0,92,0.00,,,0.00,weatherlink.com 1.10,2013-10-10 16:44:00,
2013-10-10 09:59:00,53.4,51.0,29.99,ENE,70,0.0,0.0,92,0.00,,,0.00,weatherlink.com 1.10,2013-10-10 16:59:00,
2013-10-10 10:14:00,54.9,52.0,30.00,ENE,69,0.0,0.0,91,0.00,,,0.00,weatherlink.com 1.10,2013-10-10 17:14:00,
2013-10-10 10:29:00,56.3,54.0,30.00,East,96,0.0,0.0,90,0.00,,,0.00,weatherlink.com 1.10,2013-10-10 17:29:00,
2013-10-10 10:44:00,56.2,53.0,30.00,East,91,0.0,0.0,89,0.00,,,0.00,weatherlink.com 1.10,2013-10-10 17:44:00,
2013-10-10 10:59:00,56.9,53.0,30.00,West,277,0.0,0.0,87,0.00,,,0.00,weatherlink.com 1.10,2013-10-10 17:59:00,
2013-10-10 11:14:00,58.5,54.0,30.00,WSW,252,0.0,0.0,86,0.00,,,0.00,weatherlink.com 1.10,2013-10-10 18:14:00,
2013-10-10 11:29:00,59.1,53.0,30.00,WSW,256,0.0,0.0,81,0.00,,,0.00,weatherlink.com 1.10,2013-10-10 18:29:00,
2013-10-10 11:44:00,57.9,53.0,30.00,West,271,2.0,3.0,83,0.00,,,0.00,weatherlink.com 1.10,2013-10-10 18:44:00,
2013-10-10 11:59:00,57.8,53.0,30.00,WSW,248,3.0,4.0,84,0.00,,,0.00,weatherlink.com 1.10,2013-10-10 18:59:00,
2013-10-10 12:14:00,57.2,53.0,30.00,West,259,1.0,4.0,85,0.00,,,0.00,weatherlink.com 1.10,2013-10-10 19:14:00,
2013-10-10 12:29:00,57.8,53.0,30.01,West,271,1.0,2.0,84,0.00,,,0.00,weatherlink.com 1.10,2013-10-10 19:29:00,
2013-10-10 12:44:00,57.9,53.0,30.01,West,271,1.0,3.0,83,0.00,,,0.00,weatherlink.com 1.10,2013-10-10 19:44:00,
2013-10-10 12:59:00,57.5,53.0,30.01,West,278,1.0,4.0,84,0.00,,,0.00,weatherlink.com 1.10,2013-10-10 19:59:00,
2013-10-10 13:14:00,56.7,53.0,30.01,West,276,2.0,3.0,86,0.00,,,0.00,weatherlink.com 1.10,2013-10-10 20:14:00,
2013-10-10 13:29:00,55.9,53.0,30.02,NE,54,0.0,5.0,90,0.01,,,0.01,weatherlink.com 1.10,2013-10-10 20:29:00,
2013-10-10 13:44:00,54.7,52.0,30.02,East,82,0.0,4.0,91,0.03,,,0.03,weatherlink.com 1.10,2013-10-10 20:44:00,
2013-10-10 13:59:00,54.6,52.0,30.02,NE,54,1.0,3.0,92,0.05,,,0.05,weatherlink.com 1.10,2013-10-10 20:59:00,
2013-10-10 14:14:00,54.8,53.0,30.02,ENE,63,1.0,3.0,92,0.06,,,0.06,weatherlink.com 1.10,2013-10-10 21:14:00,
2013-10-10 14:29:00,54.8,53.0,30.02,SW,224,0.0,2.0,92,0.05,,,0.06,weatherlink.com 1.10,2013-10-10 21:29:00,
2013-10-10 14:44:00,55.7,54.0,30.02,East,91,0.0,1.0,92,0.03,,,0.06,weatherlink.com 1.10,2013-10-10 21:44:00,
2013-10-10 14:59:00,54.9,53.0,30.02,NE,34,0.0,4.0,92,0.01,,,0.06,weatherlink.com 1.10,2013-10-10 21:59:00,
2013-10-10 15:14:00,55.0,53.0,30.03,ENE,63,0.0,2.0,92,0.00,,,0.06,weatherlink.com 1.10,2013-10-10 22:14:00,
2013-10-10 15:29:00,55.6,53.0,30.03,ENE,75,1.0,4.0,92,0.00,,,0.06,weatherlink.com 1.10,2013-10-10 22:29:00,
2013-10-10 15:44:00,55.9,54.0,30.03,East,84,0.0,1.0,92,0.00,,,0.06,weatherlink.com 1.10,2013-10-10 22:44:00,
2013-10-10 15:59:00,55.4,53.0,30.03,WNW,288,0.0,3.0,90,0.00,,,0.06,weatherlink.com 1.10,2013-10-10 22:59:00,
2013-10-10 16:14:00,55.4,53.0,30.03,NE,34,0.0,4.0,90,0.00,,,0.06,weatherlink.com 1.10,2013-10-10 23:14:00,
2013-10-10 16:29:00,55.4,53.0,30.04,ENE,66,1.0,2.0,90,0.00,,,0.06,weatherlink.com 1.10,2013-10-10 23:29:00,
2013-10-10 16:44:00,55.4,52.0,30.04,East,91,0.0,2.0,89,0.00,,,0.06,weatherlink.com 1.10,2013-10-10 23:44:00,
2013-10-10 16:59:00,55.1,51.0,30.04,ENE,67,0.0,2.0,86,0.00,,,0.06,weatherlink.com 1.10,2013-10-10 23:59:00,
2013-10-10 17:14:00,55.3,51.0,30.04,East,94,0.0,1.0,84,0.00,,,0.06,weatherlink.com 1.10,2013-10-11 00:14:00,
2013-10-10 17:29:00,55.4,50.0,30.04,East,96,1.0,2.0,82,0.00,,,0.06,weatherlink.com 1.10,2013-10-11 00:29:00,
2013-10-10 17:44:00,55.3,50.0,30.04,East,84,0.0,3.0,82,0.00,,,0.06,weatherlink.com 1.10,2013-10-11 00:44:00,
2013-10-10 17:59:00,55.1,50.0,30.05,ESE,102,0.0,1.0,82,0.00,,,0.06,weatherlink.com 1.10,2013-10-11 00:59:00,
2013-10-10 18:14:00,54.7,50.0,30.04,ENE,78,0.0,1.0,84,0.00,,,0.06,weatherlink.com 1.10,2013-10-11 01:14:00,
2013-10-10 18:29:00,54.3,50.0,30.04,ESE,115,0.0,0.0,85,0.00,,,0.06,weatherlink.com 1.10,2013-10-11 01:29:00,
2013-10-10 18:44:00,53.6,50.0,30.04,ESE,115,0.0,1.0,87,0.00,,,0.06,weatherlink.com 1.10,2013-10-11 01:44:00,
2013-10-10 18:59:00,53.3,50.0,30.04,ESE,115,0.0,0.0,89,0.00,,,0.06,weatherlink.com 1.10,2013-10-11 01:59:00,
2013-10-10 19:14:00,52.4,50.0,30.04,ESE,115,0.0,0.0,90,0.00,,,0.06,weatherlink.com 1.10,2013-10-11 02:14:00,
2013-10-10 19:29:00,51.8,49.0,30.05,ESE,115,0.0,0.0,91,0.00,,,0.06,weatherlink.com 1.10,2013-10-11 02:29:00,
2013-10-10 19:44:00,51.4,49.0,30.05,ESE,115,0.0,0.0,91,0.00,,,0.06,weatherlink.com 1.10,2013-10-11 02:44:00,
2013-10-10 19:59:00,50.7,49.0,30.05,ESE,115,0.0,0.0,92,0.00,,,0.06,weatherlink.com 1.10,2013-10-11 02:59:00,
2013-10-10 20:15:00,50.3,48.0,30.05,ESE,116,0.0,0.0,92,0.00,,,0.06,weatherlink.com 1.10,2013-10-11 03:15:00,
2013-10-10 20:30:00,50.0,48.0,30.05,ESE,116,0.0,0.0,92,0.00,,,0.06,weatherlink.com 1.10,2013-10-11 03:30:00,
2013-10-10 20:45:00,49.8,48.0,30.06,ESE,115,0.0,0.0,92,0.00,,,0.06,weatherlink.com 1.10,2013-10-11 03:45:00,
2013-10-10 21:00:00,49.9,48.0,30.06,ESE,116,0.0,0.0,92,0.00,,,0.06,weatherlink.com 1.10,2013-10-11 04:00:00,
2013-10-10 21:15:00,50.0,48.0,30.06,ESE,115,0.0,0.0,92,0.00,,,0.06,weatherlink.com 1.10,2013-10-11 04:15:00,
2013-10-10 21:30:00,49.8,48.0,30.07,ESE,116,0.0,0.0,92,0.00,,,0.06,weatherlink.com 1.10,2013-10-11 04:30:00,
2013-10-10 21:45:00,49.6,47.0,30.07,ESE,115,0.0,0.0,92,0.00,,,0.06,weatherlink.com 1.10,2013-10-11 04:45:00,
2013-10-10 22:00:00,49.7,48.0,30.07,ESE,116,0.0,0.0,93,0.00,,,0.06,weatherlink.com 1.10,2013-10-11 05:00:00,
2013-10-10 22:15:00,49.7,48.0,30.08,ESE,115,0.0,0.0,93,0.00,,,0.06,weatherlink.com 1.10,2013-10-11 05:15:00,
2013-10-10 22:30:00,48.8,47.0,30.08,ESE,115,0.0,0.0,93,0.00,,,0.06,weatherlink.com 1.10,2013-10-11 05:30:00,
2013-10-10 22:45:00,48.2,46.0,30.09,ESE,115,0.0,0.0,93,0.00,,,0.06,weatherlink.com 1.10,2013-10-11 05:45:00,
2013-10-10 23:00:00,47.9,46.0,30.09,ESE,115,0.0,0.0,93,0.00,,,0.06,weatherlink.com 1.10,2013-10-11 06:00:00,
2013-10-10 23:15:00,47.9,46.0,30.09,ESE,115,0.0,0.0,93,0.00,,,0.06,weatherlink.com 1.10,2013-10-11 06:15:00,
2013-10-10 23:30:00,47.3,45.0,30.09,ESE,115,0.0,0.0,93,0.00,,,0.06,weatherlink.com 1.10,2013-10-11 06:30:00,
2013-10-10 23:45:00,46.7,45.0,30.10,ESE,115,0.0,0.0,93,0.00,,,0.06,weatherlink.com 1.10,2013-10-11 06:45:00,